Погода в Виноградове

Украина / Закарпатская область     48°08′22″N   23°02′18″E
В апреле 2022 года жителям России запретили посещать сайт meteo.paraplan.net по решению Генеральной прокуратуры. Аудитория сайта уменьшилась в 10 раз. Владельцы сайта не видят смысла в поддержке погодного сервера в таких условиях. Сайт будет закрыт в октябре.
темп.,
°C
ветер,
м/с
пор.,
м/с
влажн.,
%
обл.,
%
осадки,
мм/ч
давл.,
гПа
погр.,
м
25 сентября, вс
вс2500:00+10в2278100 0.0 101951
03:00+9в2277100 0.0 101945
06:00+10в2275100 0.0 101843
09:00+10в2375100 0.0 101892
12:00+12вюв1271100 0.0 1018146
15:00+11всв2381100 0.3 1017115
18:00+12в2279100 0.1 101664
21:00+11св2280100 0.1 101523
26 сентября, пн
пн2600:00+11всв2179100 0.0 101418
03:00+11вюв1178100 0.0 101213
06:00+11в1179100 0.2 101216
09:00+10в2295100 3.9 101185
12:00+11всв2391100 2.1 1011142
15:00+13в2283100 2.4 1010207
18:00+12вюв2387100 0.2 100996
21:00+12в2290100 0.3 100848
27 сентября, вт
вт2700:00+12вюв1194100 0.8 100719
03:00+12в2195100 1.1 100429
06:00+12св1199100 5.6 100329
09:00+12юв1299100 9.4 100293
12:00+14ююв239495 4.7 1002380
15:00+14ююз2496100 7.3 1002309
18:00+14ююв1294100 1.4 100186
21:00+13юв119398 2.3 100212
28 сентября, ср
ср2800:00+11юв119582 0.1 100311
03:00+12юв1195100 0.4 100312
06:00+11ююв1198100 1.2 100344
09:00+12ю239242 1.8 1004239
12:00+15ююз457691 0.1 1005902
15:00+17ююз44579 0.2 10051369
18:00+15ююв236641 0.0 100483
21:00+12в227197 0.0 100511
29 сентября, чт
чт2900:00+11в2280100 0.0 100616
03:00+11в2380100 0.0 100548
06:00+11в2280100 0.1 100533
09:00+12юв2285100 0.4 1005107
12:00+14вюв2384100 0.4 1006198
15:00+14вюв2384100 0.5 1006179
18:00+14юв239097 0.7 100764
21:00+14юв1195100 3.1 100823